| time (UTC) | temp F | wind direction | speed MPH | gust MPH | rain 1hr in | rain 24hr in | rain mn in | humidity % | barometer mb |
| 20260507083732 | 55 | 271 | 1.0 | 4.0 | 0.00 | 0.00 | 0.00 | 86 | 1030.2 |
| 20260507083233 | 55 | 300 | 1.0 | 4.0 | 0.00 | 0.00 | 0.00 | 86 | 1030.1 |
| 20260507082729 | 55 | 10 | 0.0 | 3.0 | 0.00 | 0.00 | 0.00 | 86 | 1030.1 |
| 20260507082228 | 55 | 194 | 0.0 | 1.0 | 0.00 | 0.00 | 0.00 | 86 | 1030.0 |
| 20260507081728 | 55 | 194 | 0.0 | 1.0 | 0.00 | 0.00 | 0.00 | 86 | 1030.1 |
| 20260507081224 | 55 | 193 | 0.0 | 1.0 | 0.00 | 0.00 | 0.00 | 86 | 1030.1 |
| 20260507080724 | 55 | 194 | 0.0 | 1.0 | 0.00 | 0.00 | 0.00 | 86 | 1030.1 |
| 20260507080225 | 55 | 194 | 0.0 | 0.0 | 0.00 | 0.00 | 0.00 | 86 | 1030.2 |
| 20260507075724 | 55 | 194 | 0.0 | 2.0 | 0.00 | 0.00 | 0.00 | 86 | 1030.2 |
| 20260507075222 | 55 | 193 | 0.0 | 2.0 | 0.00 | 0.00 | 0.00 | 86 | 1030.2 |
| 20260507074722 | 55 | 191 | 0.0 | 2.0 | 0.00 | 0.00 | 0.00 | 86 | 1030.2 |
| 20260507074216 | 55 | 300 | 0.0 | 1.0 | 0.00 | 0.00 | 0.00 | 86 | 1030.2 |
| 20260507073716 | 55 | 300 | 0.0 | 2.0 | 0.00 | 0.00 | 0.00 | 86 | 1030.3 |
| 20260507073213 | 55 | 301 | 0.0 | 2.0 | 0.00 | 0.00 | 0.00 | 86 | 1030.2 |
| 20260507072710 | 55 | 300 | 0.0 | 2.0 | 0.00 | 0.00 | 0.00 | 85 | 1030.2 |
| 20260507072210 | 55 | 300 | 1.0 | 3.0 | 0.00 | 0.00 | 0.00 | 85 | 1030.1 |
| 20260507071709 | 55 | 303 | 1.0 | 3.0 | 0.00 | 0.00 | 0.00 | 85 | 1030.1 |
| 20260507071206 | 55 | 281 | 1.0 | 3.0 | 0.00 | 0.00 | 0.00 | 85 | 1030.1 |
| 20260507070703 | 55 | 318 | 0.0 | 2.0 | 0.00 | 0.00 | 0.00 | 85 | 1030.1 |
| 20260507070205 | 55 | 336 | 0.0 | 2.0 | 0.00 | 0.00 | 0.00 | 85 | 1030.1 |
| 20260507065704 | 55 | 327 | 0.0 | 2.0 | 0.00 | 0.00 | 0.00 | 85 | 1030.1 |
| 20260507065204 | 55 | 315 | 1.0 | 2.0 | 0.00 | 0.00 | 0.00 | 85 | 1030.0 |
| 20260507064700 | 55 | 308 | 1.0 | 2.0 | 0.00 | 0.00 | 0.00 | 85 | 1030.1 |
| 20260507064200 | 55 | 327 | 0.0 | 3.0 | 0.00 | 0.00 | 0.00 | 85 | 1030.1 |
| 20260507063658 | 55 | 327 | 0.0 | 3.0 | 0.00 | 0.00 | 0.00 | 85 | 1030.1 |
| 20260507063200 | 55 | 296 | 0.0 | 1.0 | 0.00 | 0.00 | 0.00 | 85 | 1030.0 |
| 20260507062658 | 55 | 296 | 0.0 | 2.0 | 0.00 | 0.00 | 0.00 | 85 | 1030.0 |
| 20260507062157 | 55 | 296 | 0.0 | 3.0 | 0.00 | 0.00 | 0.00 | 85 | 1030.1 |
| 20260507061652 | 55 | 309 | 0.0 | 3.0 | 0.00 | 0.00 | 0.00 | 85 | 1030.1 |
| 20260507061151 | 55 | 239 | 0.0 | 3.0 | 0.00 | 0.00 | 0.00 | 85 | 1030.1 |
| 20260507060647 | 55 | 236 | 1.0 | 4.0 | 0.00 | 0.00 | 0.00 | 85 | 1030.1 |
| 20260507060145 | 55 | 228 | 1.0 | 4.0 | 0.00 | 0.00 | 0.00 | 85 | 1030.0 |
| 20260507055647 | 55 | 276 | 1.0 | 3.0 | 0.00 | 0.00 | 0.00 | 85 | 1030.1 |
| 20260507055140 | 55 | 247 | 1.0 | 4.0 | 0.00 | 0.00 | 0.00 | 85 | 1030.1 |
| 20260507054640 | 55 | 246 | 2.0 | 6.0 | 0.00 | 0.00 | 0.00 | 84 | 1030.0 |
| 20260507054140 | 55 | 242 | 2.0 | 6.0 | 0.00 | 0.00 | 0.00 | 84 | 1030.1 |
| 20260507053639 | 55 | 269 | 2.0 | 6.0 | 0.00 | 0.00 | 0.00 | 84 | 1030.1 |
| 20260507053139 | 55 | 258 | 2.0 | 6.0 | 0.00 | 0.00 | 0.00 | 84 | 1030.2 |
| 20260507052641 | 55 | 244 | 2.0 | 6.0 | 0.00 | 0.00 | 0.00 | 84 | 1030.2 |
| 20260507052135 | 55 | 280 | 2.0 | 8.0 | 0.00 | 0.00 | 0.00 | 84 | 1030.2 |
| 20260507051635 | 55 | 253 | 2.0 | 8.0 | 0.00 | 0.00 | 0.00 | 84 | 1030.1 |
| 20260507051134 | 55 | 255 | 2.0 | 6.0 | 0.00 | 0.00 | 0.00 | 84 | 1030.2 |
| 20260507050634 | 55 | 279 | 3.0 | 8.0 | 0.00 | 0.00 | 0.00 | 84 | 1030.1 |
| 20260507050134 | 55 | 253 | 3.0 | 8.0 | 0.00 | 0.00 | 0.00 | 84 | 1030.0 |
| 20260507045635 | 55 | 292 | 2.0 | 8.0 | 0.00 | 0.00 | 0.00 | 84 | 1030.0 |
| 20260507045130 | 55 | 283 | 2.0 | 7.0 | 0.00 | 0.00 | 0.00 | 84 | 1030.0 |
| 20260507044629 | 55 | 267 | 2.0 | 7.0 | 0.00 | 0.00 | 0.00 | 84 | 1030.1 |
| 20260507044131 | 55 | 242 | 2.0 | 4.0 | 0.00 | 0.00 | 0.00 | 83 | 1030.0 |
| 20260507043630 | 55 | 277 | 2.0 | 6.0 | 0.00 | 0.00 | 0.00 | 83 | 1030.1 |
| 20260507043128 | 55 | 262 | 1.0 | 6.0 | 0.00 | 0.00 | 0.00 | 83 | 1029.9 |
| 20260507042629 | 56 | 277 | 0.0 | 2.0 | 0.00 | 0.00 | 0.00 | 83 | 1030.0 |
| 20260507042126 | 56 | 277 | 0.0 | 3.0 | 0.00 | 0.00 | 0.00 | 83 | 1029.9 |
| 20260507041623 | 56 | 276 | 1.0 | 4.0 | 0.00 | 0.00 | 0.00 | 83 | 1029.9 |
| 20260507041125 | 56 | 277 | 1.0 | 8.0 | 0.00 | 0.00 | 0.00 | 83 | 1029.8 |
| 20260507040624 | 56 | 277 | 2.0 | 8.0 | 0.00 | 0.00 | 0.00 | 82 | 1029.7 |
| 20260507040122 | 56 | 220 | 2.0 | 4.0 | 0.00 | 0.00 | 0.00 | 82 | 1029.6 |
| 20260507035623 | 56 | 267 | 2.0 | 7.0 | 0.00 | 0.00 | 0.00 | 82 | 1029.4 |
| 20260507035116 | 57 | 317 | 2.0 | 7.0 | 0.00 | 0.00 | 0.00 | 82 | 1029.4 |
| 20260507034615 | 57 | 290 | 3.0 | 7.0 | 0.00 | 0.00 | 0.00 | 82 | 1029.3 |
| 20260507034115 | 57 | 277 | 3.0 | 8.0 | 0.00 | 0.00 | 0.00 | 82 | 1029.3 |
| 20260507033615 | 57 | 249 | 3.0 | 8.0 | 0.00 | 0.00 | 0.00 | 81 | 1029.2 |
| 20260507033115 | 58 | 293 | 3.0 | 8.0 | 0.00 | 0.00 | 0.00 | 81 | 1029.1 |
| 20260507032617 | 58 | 267 | 3.0 | 8.0 | 0.00 | 0.00 | 0.00 | 81 | 1029.1 |
| 20260507032110 | 58 | 265 | 4.0 | 8.0 | 0.00 | 0.00 | 0.00 | 80 | 1029.0 |
| 20260507031610 | 59 | 313 | 4.0 | 8.0 | 0.00 | 0.00 | 0.00 | 79 | 1029.0 |
| 20260507031110 | 59 | 267 | 3.0 | 8.0 | 0.00 | 0.00 | 0.00 | 79 | 1028.9 |
| 20260507030609 | 60 | 25 | 3.0 | 8.0 | 0.00 | 0.00 | 0.00 | 78 | 1028.9 |
| 20260507030109 | 60 | 350 | 3.0 | 6.0 | 0.00 | 0.00 | 0.00 | 78 | 1028.8 |
| 20260507025610 | 61 | 282 | 2.0 | 5.0 | 0.00 | 0.00 | 0.00 | 77 | 1028.8 |
| 20260507025110 | 61 | 302 | 2.0 | 7.0 | 0.00 | 0.00 | 0.00 | 77 | 1028.7 |
| 20260507024610 | 61 | 276 | 2.0 | 7.0 | 0.00 | 0.00 | 0.00 | 76 | 1028.8 |
| 20260507024111 | 62 | 273 | 3.0 | 6.0 | 0.00 | 0.00 | 0.00 | 76 | 1028.8 |
| 20260507023605 | 62 | 279 | 3.0 | 8.0 | 0.00 | 0.00 | 0.00 | 75 | 1028.7 |
| 20260507023106 | 62 | 287 | 4.0 | 8.0 | 0.00 | 0.00 | 0.00 | 75 | 1028.7 |
| 20260507022605 | 63 | 259 | 3.0 | 8.0 | 0.00 | 0.00 | 0.00 | 74 | 1028.7 |
| 20260507022107 | 63 | 323 | 3.0 | 9.0 | 0.00 | 0.00 | 0.00 | 74 | 1028.7 |
| 20260507021606 | 63 | 275 | 3.0 | 9.0 | 0.00 | 0.00 | 0.00 | 74 | 1028.6 |
| 20260507021105 | 64 | 274 | 4.0 | 10.0 | 0.00 | 0.00 | 0.00 | 73 | 1028.7 |
| 20260507020607 | 64 | 271 | 4.0 | 11.0 | 0.00 | 0.00 | 0.00 | 73 | 1028.8 |
| 20260507015602 | 65 | 355 | 4.0 | 10.0 | 0.00 | 0.00 | 0.00 | 72 | 1028.8 |
| 20260507015104 | 65 | 281 | 5.0 | 11.0 | 0.00 | 0.00 | 0.00 | 72 | 1028.8 |
| 20260507014602 | 65 | 301 | 4.0 | 11.0 | 0.00 | 0.00 | 0.00 | 71 | 1028.9 |
| 20260507014101 | 66 | 313 | 3.0 | 9.0 | 0.00 | 0.00 | 0.00 | 71 | 1028.7 |
| 20260507013602 | 66 | 255 | 3.0 | 9.0 | 0.00 | 0.00 | 0.00 | 71 | 1028.6 |
| 20260507013058 | 66 | 256 | 3.0 | 8.0 | 0.00 | 0.00 | 0.00 | 71 | 1028.7 |
| 20260507012559 | 66 | 258 | 3.0 | 8.0 | 0.00 | 0.00 | 0.00 | 71 | 1028.6 |
| 20260507012058 | 67 | 281 | 4.0 | 9.0 | 0.00 | 0.00 | 0.00 | 70 | 1028.6 |
| 20260507011558 | 67 | 242 | 4.0 | 9.0 | 0.00 | 0.00 | 0.00 | 69 | 1028.6 |
| 20260507011057 | 67 | 256 | 4.0 | 8.0 | 0.00 | 0.00 | 0.00 | 69 | 1028.6 |
| 20260507010559 | 67 | 300 | 4.0 | 10.0 | 0.00 | 0.00 | 0.00 | 70 | 1028.6 |
| 20260507010052 | 68 | 288 | 4.0 | 10.0 | 0.00 | 0.00 | 0.00 | 69 | 1028.7 |
| 20260507005553 | 68 | 292 | 4.0 | 9.0 | 0.00 | 0.00 | 0.00 | 69 | 1028.8 |
| 20260507005052 | 68 | 283 | 4.0 | 8.0 | 0.00 | 0.00 | 0.00 | 69 | 1028.6 |
| 20260507004552 | 69 | 280 | 4.0 | 10.0 | 0.00 | 0.00 | 0.00 | 68 | 1028.7 |
| 20260507004045 | 69 | 284 | 4.0 | 10.0 | 0.00 | 0.00 | 0.00 | 68 | 1028.8 |
| 20260507003545 | 69 | 306 | 4.0 | 13.0 | 0.00 | 0.00 | 0.00 | 68 | 1028.7 |
| 20260507003044 | 69 | 302 | 5.0 | 13.0 | 0.00 | 0.00 | 0.00 | 68 | 1028.6 |
| 20260507002544 | 69 | 338 | 5.0 | 13.0 | 0.00 | 0.00 | 0.00 | 68 | 1028.6 |
| 20260507002043 | 69 | 304 | 5.0 | 12.0 | 0.00 | 0.00 | 0.00 | 68 | 1028.6 |
| 20260507001544 | 69 | 316 | 5.0 | 12.0 | 0.00 | 0.00 | 0.00 | 67 | 1028.6 |
| 20260507001038 | 69 | 344 | 5.0 | 11.0 | 0.00 | 0.00 | 0.00 | 68 | 1028.5 |
| 20260507000537 | 70 | 355 | 5.0 | 11.0 | 0.00 | 0.00 | 0.00 | 68 | 1028.4 |
| 20260507000037 | 70 | 323 | 5.0 | 11.0 | 0.00 | 0.00 | 0.00 | 68 | 1028.4 |
| 20260506235537 | 70 | 291 | 5.0 | 11.0 | 0.00 | 0.00 | 0.00 | 67 | 1028.3 |
| 20260506235038 | 70 | 261 | 5.0 | 13.0 | 0.00 | 0.00 | 0.00 | 67 | 1028.3 |
| 20260506234537 | 71 | 5 | 5.0 | 10.0 | 0.00 | 0.00 | 0.00 | 67 | 1028.4 |
| 20260506234032 | 71 | 298 | 5.0 | 11.0 | 0.00 | 0.00 | 0.00 | 66 | 1028.4 |
| 20260506233531 | 71 | 0 | 5.0 | 11.0 | 0.00 | 0.00 | 0.00 | 67 | 1028.3 |
| 20260506233032 | 71 | 290 | 4.0 | 10.0 | 0.00 | 0.00 | 0.00 | 66 | 1028.2 |
| 20260506232531 | 72 | 294 | 4.0 | 12.0 | 0.00 | 0.00 | 0.00 | 67 | 1028.1 |
| 20260506232031 | 72 | 236 | 4.0 | 12.0 | 0.00 | 0.00 | 0.00 | 67 | 1028.2 |
| 20260506231532 | 72 | 261 | 5.0 | 9.0 | 0.00 | 0.00 | 0.00 | 67 | 1028.3 |
| 20260506231026 | 72 | 261 | 5.0 | 9.0 | 0.00 | 0.00 | 0.00 | 67 | 1028.3 |
| 20260506230525 | 73 | 251 | 4.0 | 9.0 | 0.00 | 0.00 | 0.00 | 67 | 1028.3 |
| 20260506230025 | 73 | 282 | 3.0 | 9.0 | 0.00 | 0.00 | 0.00 | 67 | 1028.3 |
| 20260506225525 | 73 | 283 | 3.0 | 9.0 | 0.00 | 0.00 | 0.00 | 66 | 1028.4 |
| 20260506225025 | 73 | 321 | 3.0 | 9.0 | 0.00 | 0.00 | 0.00 | 65 | 1028.5 |
| 20260506224525 | 73 | 265 | 3.0 | 8.0 | 0.00 | 0.00 | 0.00 | 65 | 1028.5 |
| 20260506224019 | 73 | 273 | 3.0 | 9.0 | 0.00 | 0.00 | 0.00 | 64 | 1028.6 |
| 20260506223519 | 74 | 267 | 2.0 | 9.0 | 0.00 | 0.00 | 0.00 | 62 | 1028.6 |
| 20260506223019 | 73 | 175 | 2.0 | 4.0 | 0.00 | 0.00 | 0.00 | 62 | 1028.6 |
| 20260506222519 | 73 | 251 | 2.0 | 7.0 | 0.00 | 0.00 | 0.00 | 62 | 1028.7 |
| 20260506222019 | 73 | 36 | 2.0 | 7.0 | 0.00 | 0.00 | 0.00 | 65 | 1028.6 |
| 20260506221520 | 73 | 299 | 2.0 | 6.0 | 0.00 | 0.00 | 0.00 | 66 | 1028.7 |
| 20260506221016 | 72 | 216 | 3.0 | 7.0 | 0.00 | 0.00 | 0.00 | 65 | 1028.8 |
| 20260506220515 | 72 | 276 | 2.0 | 7.0 | 0.00 | 0.00 | 0.00 | 66 | 1028.8 |
| 20260506220016 | 72 | 221 | 2.0 | 6.0 | 0.00 | 0.00 | 0.00 | 67 | 1028.8 |
| 20260506215515 | 71 | 157 | 2.0 | 5.0 | 0.00 | 0.00 | 0.00 | 65 | 1028.8 |
| 20260506215013 | 71 | 165 | 2.0 | 7.0 | 0.00 | 0.00 | 0.00 | 67 | 1028.8 |
| 20260506214514 | 71 | 261 | 3.0 | 7.0 | 0.00 | 0.00 | 0.00 | 67 | 1028.9 |
| 20260506214011 | 71 | 219 | 3.0 | 7.0 | 0.00 | 0.00 | 0.00 | 69 | 1028.8 |
| 20260506213509 | 71 | 259 | 2.0 | 6.0 | 0.00 | 0.00 | 0.00 | 69 | 1028.8 |
| 20260506213011 | 71 | 237 | 1.0 | 5.0 | 0.00 | 0.00 | 0.00 | 71 | 1028.7 |
| 20260506212509 | 71 | 319 | 2.0 | 6.0 | 0.00 | 0.00 | 0.00 | 69 | 1028.7 |
| 20260506212007 | 71 | 344 | 2.0 | 7.0 | 0.00 | 0.00 | 0.00 | 69 | 1028.9 |
| 20260506211506 | 70 | 210 | 2.0 | 7.0 | 0.00 | 0.00 | 0.00 | 72 | 1028.8 |
| 20260506211005 | 69 | 176 | 2.0 | 7.0 | 0.00 | 0.00 | 0.00 | 74 | 1028.8 |
| 20260506210505 | 68 | 202 | 1.0 | 6.0 | 0.00 | 0.00 | 0.00 | 76 | 1028.9 |
| 20260506210006 | 68 | 323 | 1.0 | 5.0 | 0.00 | 0.00 | 0.00 | 73 | 1028.9 |
| 20260506205504 | 68 | 315 | 2.0 | 5.0 | 0.00 | 0.00 | 0.00 | 74 | 1029.1 |
| 20260506205001 | 68 | 232 | 1.0 | 5.0 | 0.00 | 0.00 | 0.00 | 74 | 1029.1 |
| 20260506204502 | 67 | 83 | 1.0 | 4.0 | 0.00 | 0.00 | 0.00 | 76 | 1029.1 |
| 20260506203957 | 67 | 245 | 2.0 | 6.0 | 0.00 | 0.00 | 0.00 | 75 | 1029.2 |
| 20260506203457 | 67 | 234 | 3.0 | 7.0 | 0.00 | 0.00 | 0.00 | 74 | 1029.2 |
| 20260506202955 | 68 | 244 | 3.0 | 7.0 | 0.00 | 0.00 | 0.00 | 73 | 1029.3 |
| 20260506202456 | 69 | 279 | 2.0 | 6.0 | 0.00 | 0.00 | 0.00 | 73 | 1029.3 |
| 20260506201955 | 69 | 215 | 1.0 | 6.0 | 0.00 | 0.00 | 0.00 | 71 | 1029.2 |
| 20260506201456 | 70 | 152 | 2.0 | 6.0 | 0.00 | 0.00 | 0.00 | 73 | 1029.2 |
| 20260506200950 | 69 | 175 | 3.0 | 8.0 | 0.00 | 0.00 | 0.00 | 74 | 1029.2 |
| 20260506200449 | 69 | 175 | 3.0 | 8.0 | 0.00 | 0.00 | 0.00 | 73 | 1029.4 |
| 20260506195949 | 69 | 190 | 2.0 | 8.0 | 0.00 | 0.00 | 0.00 | 73 | 1029.4 |
| 20260506195449 | 70 | 227 | 3.0 | 8.0 | 0.00 | 0.00 | 0.00 | 72 | 1029.3 |
| 20260506194949 | 70 | 118 | 3.0 | 8.0 | 0.00 | 0.00 | 0.00 | 73 | 1029.4 |
| 20260506194449 | 70 | 211 | 3.0 | 12.0 | 0.00 | 0.00 | 0.00 | 74 | 1029.5 |
| 20260506193945 | 69 | 186 | 3.0 | 12.0 | 0.00 | 0.00 | 0.00 | 75 | 1029.4 |
| 20260506193445 | 68 | 148 | 3.0 | 10.0 | 0.00 | 0.00 | 0.00 | 78 | 1029.4 |
| 20260506192945 | 67 | 117 | 3.0 | 10.0 | 0.00 | 0.00 | 0.00 | 76 | 1029.4 |
| 20260506192445 | 67 | 171 | 3.0 | 9.0 | 0.00 | 0.00 | 0.00 | 77 | 1029.4 |
| 20260506191942 | 67 | 161 | 3.0 | 8.0 | 0.00 | 0.00 | 0.00 | 78 | 1029.3 |
| 20260506191444 | 66 | 156 | 3.0 | 7.0 | 0.00 | 0.00 | 0.00 | 82 | 1029.4 |
| 20260506190938 | 65 | 145 | 3.0 | 7.0 | 0.00 | 0.00 | 0.00 | 82 | 1029.6 |
| 20260506190437 | 64 | 156 | 2.0 | 6.0 | 0.00 | 0.00 | 0.00 | 82 | 1029.7 |
| 20260506185936 | 63 | 218 | 3.0 | 7.0 | 0.00 | 0.00 | 0.00 | 81 | 1029.7 |
| 20260506185437 | 63 | 235 | 2.0 | 7.0 | 0.00 | 0.00 | 0.00 | 81 | 1029.7 |
| 20260506184937 | 63 | 150 | 2.0 | 5.0 | 0.00 | 0.00 | 0.00 | 82 | 1029.7 |
| 20260506184438 | 62 | 197 | 2.0 | 5.0 | 0.00 | 0.00 | 0.00 | 82 | 1029.7 |
| 20260506183932 | 62 | 207 | 2.0 | 6.0 | 0.00 | 0.00 | 0.00 | 83 | 1029.7 |
| 20260506183431 | 62 | 180 | 2.0 | 7.0 | 0.00 | 0.00 | 0.00 | 84 | 1029.7 |
| 20260506182930 | 62 | 240 | 2.0 | 7.0 | 0.00 | 0.00 | 0.00 | 84 | 1029.8 |
| 20260506182431 | 61 | 273 | 1.0 | 6.0 | 0.00 | 0.00 | 0.00 | 84 | 1029.7 |
| 20260506181931 | 61 | 225 | 1.0 | 3.0 | 0.00 | 0.00 | 0.00 | 83 | 1029.8 |
| 20260506181431 | 61 | 202 | 1.0 | 5.0 | 0.00 | 0.00 | 0.00 | 83 | 1029.8 |
| 20260506180926 | 61 | 178 | 2.0 | 6.0 | 0.00 | 0.00 | 0.00 | 83 | 1029.6 |
| 20260506180425 | 60 | 106 | 1.0 | 6.0 | 0.00 | 0.00 | 0.00 | 85 | 1029.7 |
| 20260506175925 | 60 | 82 | 1.0 | 3.0 | 0.00 | 0.00 | 0.00 | 85 | 1029.6 |
| 20260506175425 | 59 | 168 | 1.0 | 5.0 | 0.00 | 0.00 | 0.00 | 86 | 1029.7 |
| 20260506174925 | 58 | 154 | 1.0 | 5.0 | 0.00 | 0.00 | 0.00 | 87 | 1029.7 |
| 20260506174426 | 58 | 215 | 1.0 | 3.0 | 0.00 | 0.00 | 0.00 | 86 | 1029.7 |
| 20260506173919 | 58 | 253 | 1.0 | 3.0 | 0.00 | 0.00 | 0.00 | 87 | 1029.7 |
| 20260506173418 | 58 | 302 | 1.0 | 3.0 | 0.00 | 0.00 | 0.00 | 88 | 1029.8 |
| 20260506172915 | 57 | 333 | 1.0 | 4.0 | 0.00 | 0.00 | 0.00 | 87 | 1029.8 |
| 20260506172413 | 57 | 258 | 2.0 | 5.0 | 0.00 | 0.00 | 0.00 | 87 | 1029.9 |
| 20260506171914 | 57 | 270 | 2.0 | 7.0 | 0.00 | 0.00 | 0.00 | 87 | 1029.9 |
| 20260506171408 | 57 | 259 | 1.0 | 7.0 | 0.00 | 0.00 | 0.00 | 87 | 1029.8 |
| 20260506170908 | 57 | 248 | 1.0 | 3.0 | 0.00 | 0.00 | 0.00 | 88 | 1029.4 |
| 20260506170408 | 57 | 257 | 1.0 | 4.0 | 0.00 | 0.00 | 0.00 | 87 | 1029.5 |
| 20260506165909 | 57 | 217 | 2.0 | 4.0 | 0.00 | 0.00 | 0.00 | 87 | 1029.6 |
| 20260506165408 | 57 | 264 | 2.0 | 4.0 | 0.00 | 0.00 | 0.00 | 87 | 1029.8 |
| 20260506164910 | 57 | 273 | 1.0 | 4.0 | 0.00 | 0.00 | 0.00 | 87 | 1029.7 |
| 20260506164407 | 57 | 271 | 1.0 | 4.0 | 0.00 | 0.00 | 0.00 | 88 | 1029.9 |
| 20260506163906 | 56 | 207 | 1.0 | 3.0 | 0.00 | 0.00 | 0.00 | 88 | 1029.7 |
| 20260506163409 | 56 | 225 | 1.0 | 4.0 | 0.00 | 0.00 | 0.00 | 88 | 1029.7 |
| 20260506162907 | 56 | 221 | 1.0 | 4.0 | 0.00 | 0.00 | 0.00 | 88 | 1029.5 |
| 20260506162407 | 56 | 225 | 1.0 | 4.0 | 0.00 | 0.00 | 0.00 | 88 | 1029.6 |
| 20260506161908 | 56 | 227 | 1.0 | 4.0 | 0.00 | 0.00 | 0.00 | 88 | 1029.5 |
| 20260506161404 | 56 | 163 | 1.0 | 4.0 | 0.00 | 0.00 | 0.00 | 88 | 1029.3 |
| 20260506160902 | 56 | 233 | 2.0 | 5.0 | 0.00 | 0.00 | 0.00 | 88 | 1029.3 |
| 20260506160403 | 56 | 180 | 1.0 | 5.0 | 0.00 | 0.00 | 0.00 | 89 | 1029.1 |
| 20260506155902 | 55 | 169 | 1.0 | 5.0 | 0.00 | 0.00 | 0.00 | 89 | 1029.2 |
| 20260506155402 | 55 | 121 | 1.0 | 5.0 | 0.00 | 0.00 | 0.00 | 89 | 1029.2 |
| 20260506154904 | 55 | 239 | 1.0 | 3.0 | 0.00 | 0.00 | 0.00 | 89 | 1029.5 |
| 20260506154359 | 55 | 236 | 1.0 | 3.0 | 0.00 | 0.00 | 0.00 | 89 | 1029.4 |
| 20260506153858 | 55 | 224 | 1.0 | 3.0 | 0.00 | 0.00 | 0.00 | 89 | 1029.5 |
| 20260506153400 | 55 | 273 | 1.0 | 3.0 | 0.00 | 0.00 | 0.00 | 89 | 1029.5 |
| 20260506152858 | 54 | 182 | 1.0 | 4.0 | 0.00 | 0.00 | 0.00 | 89 | 1029.6 |
| 20260506152358 | 54 | 244 | 1.0 | 4.0 | 0.00 | 0.00 | 0.00 | 89 | 1029.7 |
| 20260506151859 | 54 | 234 | 1.0 | 6.0 | 0.00 | 0.00 | 0.00 | 89 | 1029.6 |
| 20260506151354 | 54 | 231 | 2.0 | 7.0 | 0.00 | 0.00 | 0.00 | 89 | 1029.8 |
| 20260506150854 | 54 | 209 | 3.0 | 7.0 | 0.00 | 0.00 | 0.00 | 89 | 1029.7 |
| 20260506150354 | 54 | 229 | 3.0 | 10.0 | 0.00 | 0.00 | 0.00 | 89 | 1029.8 |
| 20260506145855 | 54 | 288 | 3.0 | 10.0 | 0.00 | 0.00 | 0.00 | 88 | 1029.7 |
| 20260506145355 | 54 | 246 | 4.0 | 9.0 | 0.00 | 0.00 | 0.00 | 88 | 1029.7 |
| 20260506144854 | 54 | 275 | 3.0 | 9.0 | 0.00 | 0.00 | 0.00 | 88 | 1029.7 |
| 20260506144354 | 54 | 237 | 2.0 | 5.0 | 0.00 | 0.00 | 0.00 | 89 | 1029.4 |
| 20260506143854 | 54 | 232 | 2.0 | 5.0 | 0.00 | 0.00 | 0.00 | 89 | 1029.2 |
| 20260506143355 | 54 | 246 | 2.0 | 5.0 | 0.00 | 0.00 | 0.00 | 89 | 1029.2 |
| 20260506142854 | 54 | 226 | 2.0 | 5.0 | 0.00 | 0.00 | 0.00 | 89 | 1029.0 |
| 20260506142354 | 54 | 252 | 1.0 | 4.0 | 0.00 | 0.00 | 0.00 | 90 | 1028.9 |
| 20260506141855 | 53 | 202 | 1.0 | 4.0 | 0.00 | 0.00 | 0.00 | 90 | 1028.8 |
| 20260506141348 | 53 | 200 | 1.0 | 4.0 | 0.00 | 0.00 | 0.00 | 90 | 1028.6 |
| 20260506140847 | 53 | 175 | 0.0 | 1.0 | 0.00 | 0.00 | 0.00 | 90 | 1028.7 |
| 20260506140345 | 53 | 176 | 0.0 | 2.0 | 0.00 | 0.00 | 0.00 | 90 | 1028.7 |
| 20260506135843 | 53 | 180 | 1.0 | 3.0 | 0.00 | 0.00 | 0.00 | 90 | 1028.7 |
| 20260506135342 | 53 | 147 | 0.0 | 3.0 | 0.00 | 0.00 | 0.00 | 90 | 1028.8 |
| 20260506134839 | 53 | 172 | 0.0 | 2.0 | 0.00 | 0.00 | 0.00 | 90 | 1028.7 |
| 20260506134338 | 53 | 175 | 0.0 | 1.0 | 0.00 | 0.00 | 0.00 | 90 | 1028.8 |
| 20260506133836 | 53 | 181 | 0.0 | 3.0 | 0.00 | 0.00 | 0.00 | 90 | 1028.8 |
| 20260506133337 | 53 | 182 | 1.0 | 4.0 | 0.00 | 0.00 | 0.00 | 90 | 1028.9 |
| 20260506132836 | 53 | 220 | 0.0 | 4.0 | 0.00 | 0.00 | 0.00 | 90 | 1028.7 |
| 20260506132337 | 54 | 222 | 0.0 | 2.0 | 0.00 | 0.00 | 0.00 | 89 | 1028.6 |
| 20260506131830 | 54 | 223 | 0.0 | 2.0 | 0.00 | 0.00 | 0.00 | 89 | 1028.5 |
| 20260506131330 | 54 | 229 | 0.0 | 2.0 | 0.00 | 0.00 | 0.00 | 89 | 1028.5 |
| 20260506130830 | 54 | 229 | 0.0 | 2.0 | 0.00 | 0.00 | 0.00 | 89 | 1028.4 |
| 20260506130330 | 54 | 231 | 0.0 | 1.0 | 0.00 | 0.00 | 0.00 | 90 | 1028.4 |
| 20260506125830 | 54 | 231 | 0.0 | 2.0 | 0.00 | 0.00 | 0.00 | 90 | 1028.2 |
| 20260506125331 | 54 | 230 | 0.0 | 2.0 | 0.00 | 0.00 | 0.00 | 90 | 1028.1 |
| 20260506124825 | 54 | 243 | 0.0 | 2.0 | 0.00 | 0.00 | 0.00 | 90 | 1028.2 |
| 20260506124324 | 54 | 243 | 0.0 | 2.0 | 0.00 | 0.00 | 0.00 | 90 | 1028.2 |
| 20260506123824 | 54 | 244 | 0.0 | 1.0 | 0.00 | 0.00 | 0.00 | 90 | 1028.2 |
| 20260506123326 | 54 | 243 | 0.0 | 1.0 | 0.00 | 0.00 | 0.00 | 90 | 1028.3 |
| 20260506122824 | 54 | 242 | 0.0 | 1.0 | 0.00 | 0.00 | 0.00 | 90 | 1028.2 |
| 20260506122325 | 54 | 243 | 0.0 | 1.0 | 0.00 | 0.00 | 0.00 | 90 | 1028.2 |
| 20260506121820 | 54 | 248 | 0.0 | 0.0 | 0.00 | 0.00 | 0.00 | 90 | 1028.2 |
| 20260506121320 | 54 | 248 | 0.0 | 1.0 | 0.00 | 0.00 | 0.00 | 90 | 1028.2 |
| 20260506120820 | 53 | 248 | 0.0 | 1.0 | 0.00 | 0.00 | 0.00 | 91 | 1028.1 |
| 20260506120321 | 53 | 248 | 0.0 | 1.0 | 0.00 | 0.00 | 0.00 | 91 | 1028.2 |
| 20260506115818 | 53 | 285 | 0.0 | 0.0 | 0.00 | 0.00 | 0.00 | 90 | 1028.2 |
| 20260506115318 | 53 | 284 | 0.0 | 0.0 | 0.00 | 0.00 | 0.00 | 90 | 1028.1 |
| 20260506114816 | 53 | 286 | 0.0 | 0.0 | 0.00 | 0.00 | 0.00 | 90 | 1028.1 |
| 20260506114314 | 53 | 285 | 0.0 | 0.0 | 0.00 | 0.00 | 0.00 | 90 | 1027.9 |
| 20260506113812 | 53 | 284 | 0.0 | 0.0 | 0.00 | 0.00 | 0.00 | 90 | 1027.9 |
| 20260506113312 | 53 | 286 | 0.0 | 0.0 | 0.00 | 0.00 | 0.00 | 90 | 1027.8 |
| 20260506112812 | 53 | 285 | 0.0 | 0.0 | 0.00 | 0.00 | 0.00 | 90 | 1027.7 |
| 20260506112313 | 53 | 284 | 0.0 | 0.0 | 0.00 | 0.00 | 0.00 | 90 | 1027.6 |
| 20260506111808 | 53 | 285 | 0.0 | 0.0 | 0.00 | 0.00 | 0.00 | 91 | 1027.6 |
| 20260506111308 | 53 | 285 | 0.0 | 0.0 | 0.00 | 0.00 | 0.00 | 90 | 1027.6 |
| 20260506110806 | 53 | 284 | 0.0 | 1.0 | 0.00 | 0.00 | 0.00 | 91 | 1027.6 |
| 20260506110306 | 53 | 284 | 0.0 | 1.0 | 0.00 | 0.00 | 0.00 | 91 | 1027.5 |
| 20260506105806 | 53 | 285 | 0.0 | 2.0 | 0.00 | 0.00 | 0.00 | 91 | 1027.4 |
| 20260506105306 | 53 | 284 | 0.0 | 2.0 | 0.00 | 0.00 | 0.00 | 91 | 1027.3 |
| 20260506104805 | 53 | 285 | 0.0 | 2.0 | 0.00 | 0.00 | 0.00 | 91 | 1027.2 |
| 20260506104304 | 53 | 284 | 1.0 | 3.0 | 0.00 | 0.00 | 0.00 | 91 | 1027.2 |
| 20260506103803 | 53 | 284 | 1.0 | 3.0 | 0.00 | 0.00 | 0.00 | 91 | 1027.1 |
| 20260506103302 | 53 | 311 | 0.0 | 2.0 | 0.00 | 0.00 | 0.00 | 91 | 1027.1 |
| 20260506102800 | 53 | 294 | 0.0 | 2.0 | 0.00 | 0.00 | 0.00 | 91 | 1027.1 |
| 20260506102300 | 52 | 298 | 0.0 | 2.0 | 0.00 | 0.00 | 0.00 | 91 | 1027.1 |
| 20260506101759 | 52 | 233 | 0.0 | 2.0 | 0.00 | 0.00 | 0.00 | 91 | 1026.9 |
| 20260506101254 | 52 | 232 | 0.0 | 1.0 | 0.00 | 0.00 | 0.00 | 90 | 1026.8 |
| 20260506100754 | 52 | 232 | 0.0 | 1.0 | 0.00 | 0.00 | 0.00 | 90 | 1026.9 |
| 20260506100254 | 53 | 231 | 0.0 | 1.0 | 0.00 | 0.00 | 0.00 | 90 | 1026.8 |
| 20260506095754 | 52 | 231 | 0.0 | 1.0 | 0.00 | 0.00 | 0.00 | 90 | 1026.7 |
| 20260506095254 | 53 | 230 | 0.0 | 0.0 | 0.00 | 0.00 | 0.00 | 90 | 1026.7 |
| 20260506094751 | 53 | 231 | 0.0 | 0.0 | 0.00 | 0.00 | 0.00 | 90 | 1026.6 |
| 20260506094250 | 53 | 230 | 0.0 | 1.0 | 0.00 | 0.00 | 0.00 | 90 | 1026.6 |
| 20260506093748 | 53 | 231 | 0.0 | 1.0 | 0.00 | 0.00 | 0.00 | 90 | 1026.6 |
| 20260506093248 | 53 | 230 | 0.0 | 1.0 | 0.00 | 0.00 | 0.00 | 90 | 1026.6 |
| 20260506092748 | 53 | 231 | 0.0 | 1.0 | 0.00 | 0.00 | 0.00 | 89 | 1026.6 |
| 20260506092247 | 54 | 230 | 0.0 | 1.0 | 0.00 | 0.00 | 0.00 | 89 | 1026.6 |
| 20260506091742 | 54 | 230 | 0.0 | 1.0 | 0.00 | 0.00 | 0.00 | 89 | 1026.4 |
| 20260506091241 | 54 | 230 | 0.0 | 1.0 | 0.00 | 0.00 | 0.00 | 89 | 1026.4 |
| 20260506090738 | 54 | 265 | 0.0 | 1.0 | 0.00 | 0.00 | 0.00 | 88 | 1026.4 |
| 20260506090235 | 55 | 265 | 0.0 | 0.0 | 0.00 | 0.00 | 0.00 | 88 | 1026.3 |
| 20260506085737 | 55 | 265 | 0.0 | 1.0 | 0.00 | 0.00 | 0.00 | 88 | 1026.3 |
| 20260506085231 | 55 | 265 | 0.0 | 1.0 | 0.00 | 0.00 | 0.00 | 88 | 1026.3 |
| 20260506084730 | 55 | 265 | 0.0 | 2.0 | 0.00 | 0.00 | 0.00 | 88 | 1026.3 |
| 20260506084229 | 56 | 265 | 0.0 | 2.0 | 0.00 | 0.00 | 0.00 | 87 | 1026.4 |